Regional Weather Roundup
Issued by NWS Green Bay, WI

Home | Current Version | Previous Version | Text Only | Print | Product List | Glossary On
Versions: 1 2 3 4 5 6 7 8 9 10 11 12 13 14 15 16 17 18 19 20 21 22 23 24 25 26 27 28 29 30 31 32 33 34 35 36 37 38 39 40 41 42 43 44 45 46 47 48 49 50
000
ASUS43 KGRB 270210
RWRGRB

NORTH-CENTRAL AND NORTHEAST WISCONSIN REGIONAL WEATHER ROUNDUP
NATIONAL WEATHER SERVICE GREEN BAY WI
800 PM CST WED NOV 26 2014

WIZ005-009-010>012-018-019-270300-
NORTH CENTRAL WISCONSIN

CITY           SKY/WX    TMP DP  RH WIND       PRES   REMARKS
IRONWOOD       CLOUDY    19  18  93 N12G17    30.19S VSB 3/4 WCI   7
MANITOWISH WTR LGT SNOW  19  18  96 CALM      30.16S
ARBOR VITAE    FLURRIES  22  19  87 NW7       30.15S
EAGLE RIVER    FLURRIES  19  15  85 N6        30.13S
LAND O LAKES   CLOUDY    20  18  93 N7        30.14F
RHINELANDER    CLOUDY    20  16  84 N3        30.14S
PHILLIPS       FLURRIES  19  14  82 N5        30.18S
ANTIGO         CLOUDY    20  18  92 NW7       30.13S
TOMAHAWK       MOCLDY    20  16  86 CALM      30.16S
MERRILL        FLURRIES  22  18  83 N14       30.15F WCI  10
$$

WIZ013-073-270300-
NORTHEAST WISCONSIN

CITY           SKY/WX    TMP DP  RH WIND       PRES   REMARKS
IRON MOUNTAIN  CLOUDY    23  18  81 NW10      30.12S
MARINETTE      CLOUDY    21  18  86 W3        30.15F
OCONTO         CLOUDY    19  18  93 W3        30.17S
$$

WIZ017-030-035>037-045-270300-
CENTRAL WISCONSIN

CITY           SKY/WX    TMP DP  RH WIND       PRES   REMARKS
MEDFORD        CLOUDY    22  18  86 NW6       30.16F
WAUSAU         CLOUDY    23  19  85 NW8       30.15S
MOSINEE        LGT SNOW  21  21 100 NW7       30.17S
MARSHFIELD     LGT SNOW  22  19  89 NW9       30.17S FOG
WISC RAPIDS    LGT SNOW  22  19  89 NW6       30.20S
STEVENS POINT  MIX PCPN  22  20  93 W5        30.18S
WAUPACA        LGT SNOW  20  18  91 CALM      30.18F
SHAWANO        CLOUDY    23  19  86 W3        30.17S
CLINTONVILLE   CLOUDY    19  19 100 CALM      30.17S
$$

WIZ038-039-048-051-270300-
FOX VALLEY

CITY           SKY/WX    TMP DP  RH WIND       PRES   REMARKS
NWS GREEN BAY  CLOUDY    18  15  88 CALM      30.17S FOG
APPLETON       MOCLDY    18  16  93 W6        30.17S WCI   9
OSHKOSH        MOCLDY    19  16  88 MISG      30.18S FOG
FOND DU LAC    FLURRIES  20  16  84 W6        30.18S
$$

WIZ022-050-052-270300-
EAST CENTRAL WISCONSIN

CITY           SKY/WX    TMP DP  RH WIND       PRES   REMARKS
STURGEON BAY   CLOUDY    23  18  80 NW5       30.15F
MANITOWOC      PTCLDY    18  16  92 CALM      30.17F FOG
SHEBOYGAN      PTCLDY    19  16  88 NW6       30.17S FOG
$$

LMZ563-521-522-541>543-270300-
LAKESHORE

STATION/POSITION TIME  TEMP    WIND        PRES    VSBY  WAVE
                       AIR SEA DIR/SP/G                  HT/PER
                 (UTC) (F)     (DEG/KT/KT) (MB)    (MI)  (FT/S)
SHEBOYGAN LKSHOR 0200   22 36  320/  9/ 10 1023.0S
KEWAUNEE LKSHORE 0200   19     310/  2/  5 1020.5F
ALGOMA MARINA    0100          330/  4/  7   N/A
TWO RIVERS CG    0100   20                 1021.9
NORTHPORT PIER   0200   27     320/ 12/ 16 1021.0S
N MID LAKE BUOY  0200   29 42  300/  8/ 12 1021.6S         1
SISTER BAY LKSHO 0100          350/  8/ 10   N/A
STURGEON BAY CG  0100   21     290/  4     1021.9      6   1
CHAMBERS ISLAND  0200   25     260/  4/  7 1021.3F
MENOMINEE LKSHOR 0200   23     270/  5/  8 1021.9F
$$


USA.gov is the U.S. government's official web portal to all federal, state and local government web resources and services.